H1 CPF 2 NER 2025 9 11 9 254 01 glonass140 H2 1903001 9140 44299 2025 9 11 0 0 0 2025 9 14 23 45 0 900 1 1 0 0 0 1 H9 10 0 60929 0.00000 0 22175011.824 8390501.182 9448411.818 10 0 60929 900.00000 0 23084657.555 8766947.547 6441604.488 10 0 60929 1800.00000 0 23679457.588 8911929.719 3309831.695 10 0 60929 2700.00000 0 23922541.568 8866995.323 113826.704 10 0 60929 3600.00000 0 23788272.094 8680672.157 -3084382.556 10 0 60929 4500.00000 0 23263412.316 8406185.691 -6222676.311 10 0 60929 5400.00000 0 22347793.210 8098983.023 -9240051.321 10 0 60929 6300.00000 0 21054450.802 7814168.334 -12077810.975 10 0 60929 7200.00000 0 19409225.872 7603958.849 -14680713.304 10 0 60929 8100.00000 0 17449841.326 7515269.826 -16998053.919 10 0 60929 9000.00000 0 15224494.505 7587531.865 -18984662.029 10 0 60929 9900.00000 0 12790022.304 7850834.122 -20601789.387 10 0 60929 10800.00000 0 10209715.036 8324473.375 -21817874.210 10 0 60929 11700.00000 0 7550869.928 9015971.698 -22609164.590 10 0 60929 12600.00000 0 4882186.174 9920605.664 -22960188.729 10 0 60929 13500.00000 0 2271110.232 11021468.255 -22864062.456 10 0 60929 14400.00000 0 -218757.895 12290062.051 -22322627.652 10 0 60929 15300.00000 0 -2530089.115 13687399.565 -21346418.606 10 0 60929 16200.00000 0 -4613979.353 15165565.027 -19954456.791 10 0 60929 17100.00000 0 -6431743.678 16669672.136 -18173877.908 10 0 60929 18000.00000 0 -7956275.975 18140135.323 -16039398.524 10 0 60929 18900.00000 0 -9172918.219 19515158.600 -13592632.891 10 0 60929 19800.00000 0 -10079804.158 20733336.649 -10881273.614 10 0 60929 20700.00000 0 -10687664.605 21736257.943 -7958152.761 10 0 60929 21600.00000 0 -11019104.444 22470999.556 -4880202.503 10 0 60929 22500.00000 0 -11107383.897 22892407.975 -1707336.441 10 0 60929 23400.00000 0 -10994757.652 22965069.419 1498725.509 10 0 60929 24300.00000 0 -10730444.077 22664886.563 4675664.798 10 0 60929 25200.00000 0 -10368312.243 21980195.441 7761780.110 10 0 60929 26100.00000 0 -9964386.073 20912376.000 10697187.073 10 0 60929 27000.00000 0 -9574272.226 19475931.295 13424978.189 10 0 60929 27900.00000 0 -9250621.019 17698032.729 15892320.562 10 0 60929 28800.00000 0 -9040727.694 15617551.118 18051470.565 10 0 60929 29700.00000 0 -8984374.894 13283614.586 19860686.706 10 0 60929 30600.00000 0 -9112006.614 10753753.709 21285024.207 10 0 60929 31500.00000 0 -9443309.620 8091711.008 22296997.311 10 0 60929 32400.00000 0 -9986261.154 5365005.241 22877097.972 10 0 60929 33300.00000 0 -10736682.252 2642350.582 23014162.284 10 0 60929 34200.00000 0 -11678315.043 -8963.705 22705578.667 10 0 60929 35100.00000 0 -12783420.893 -2525626.195 21957334.571 10 0 60929 36000.00000 0 -14013874.851 -4850684.943 20783901.123 10 0 60929 36900.00000 0 -15322711.521 -6935660.946 19207957.789 10 0 60929 37800.00000 0 -16656058.888 -8742307.501 17259961.799 10 0 60929 38700.00000 0 -17955380.588 -10243943.867 14977569.702 10 0 60929 39600.00000 0 -19159934.081 -11426308.893 12404921.012 10 0 60929 40500.00000 0 -20209342.996 -12287899.801 9591796.475 10 0 60929 41400.00000 0 -21046176.622 -12839782.427 6592665.914 10 0 60929 42300.00000 0 -21618428.763 -13104880.967 3465642.954 10 0 60929 43200.00000 0 -21881791.724 -13116776.974 271365.957 10 0 60929 44100.00000 0 -21801629.278 -12918067.903 -2928173.713 10 0 60929 45000.00000 0 -21354564.531 -12558354.176 -6070833.574 10 0 60929 45900.00000 0 -20529614.421 -12091939.595 -9095528.629 10 0 60929 46800.00000 0 -19328821.389 -11575342.323 -11943422.840 10 0 60929 47700.00000 0 -17767353.742 -11064721.997 -14559079.687 10 0 60929 48600.00000 0 -15873068.615 -10613332.280 -16891548.752 10 0 60929 49500.00000 0 -13685554.088 -10269107.448 -18895366.415 10 0 60929 50400.00000 0 -11254689.070 -10072485.993 -20531450.449 10 0 60929 51300.00000 0 -8638779.996 -10054564.363 -21767870.407 10 0 60929 52200.00000 0 -5902351.308 -10235660.025 -22580478.241 10 0 60929 53100.00000 0 -3113681.403 -10624345.662 -22953386.319 10 0 60929 54000.00000 0 -342186.540 -11216996.352 -22879283.137 10 0 60929 54900.00000 0 2344238.374 -11997869.752 -22359580.213 10 0 60929 55800.00000 0 4881811.230 -12939716.620 -21404386.990 10 0 60929 56700.00000 0 7213278.395 -14004896.389 -20032314.049 10 0 60929 57600.00000 0 9290053.990 -15146950.944 -18270108.340 10 0 60929 58500.00000 0 11073993.745 -16312570.133 -16152127.532 10 0 60929 59400.00000 0 12538729.934 -17443865.707 -13719663.967 10 0 60929 60300.00000 0 13670512.501 -18480857.219 -11020131.687 10 0 60929 61200.00000 0 14468522.409 -19364064.170 -8106133.044 10 0 60929 62100.00000 0 14944645.788 -20037094.239 -5034423.815 10 0 60929 63000.00000 0 15122720.313 -20449117.555 -1864797.936 10 0 60929 63900.00000 0 15037287.695 -20557121.983 1341085.380 10 0 60929 64800.00000 0 14731907.053 -20327853.868 4520908.287 10 0 60929 65700.00000 0 14257102.372 -19739362.268 7612910.357 10 0 60929 66600.00000 0 13668032.496 -18782081.761 10557089.677 10 0 60929 67500.00000 0 13021983.374 -17459408.627 13296365.320 10 0 60929 68400.00000 0 12375789.329 -15787746.689 15777678.698 10 0 60929 69300.00000 0 11783292.437 -13796021.402 17953012.852 10 0 60929 70200.00000 0 11292946.963 -11524682.934 19780310.800 10 0 60929 71100.00000 0 10945669.082 -9024240.008 21224276.362 10 0 60929 72000.00000 0 10773021.438 -6353385.479 22257043.306 10 0 60929 72900.00000 0 10795807.713 -3576791.034 22858701.385 10 0 60929 73800.00000 0 11023135.208 -762661.585 23017670.419 10 0 60929 74700.00000 0 11451983.873 2019850.510 22730916.366 10 0 60929 75600.00000 0 12067299.419 4703265.934 22004005.978 10 0 60929 76500.00000 0 12842606.502 7224326.894 20850999.327 10 0 60929 77400.00000 0 13741116.717 9526369.854 19294182.182 10 0 60929 78300.00000 0 14717285.729 11561425.943 17363642.838 10 0 60929 79200.00000 0 15718755.399 13291963.423 15096700.628 10 0 60929 80100.00000 0 16688600.622 14692200.998 12537195.996 10 0 60929 81000.00000 0 17567787.793 15748938.173 9734654.521 10 0 60929 81900.00000 0 18297742.592 16461868.497 6743339.743 10 0 60929 82800.00000 0 18822919.762 16843362.766 3621212.005 10 0 60929 83700.00000 0 19093266.908 16917731.192 428812.538 10 0 60929 84600.00000 0 19066478.254 16719995.287 -2771906.179 10 0 60929 85500.00000 0 18709942.535 16294220.835 -5918781.301 10 0 60930 0.00000 0 18002301.715 15691482.018 -8950648.116 10 0 60930 900.00000 0 16934552.747 14967542.122 -11808533.933 10 0 60930 1800.00000 0 15510645.013 14180349.695 -14436809.504 10 0 60930 2700.00000 0 13747545.035 13387455.122 -16784280.341 10 0 60930 3600.00000 0 11674764.503 12643458.079 -18805191.827 10 0 60930 4500.00000 0 9333369.244 11997594.108 -20460129.470 10 0 60930 5400.00000 0 6774509.048 11491563.115 -21716795.796 10 0 60930 6300.00000 0 4057528.526 11157692.369 -22550648.165 10 0 60930 7200.00000 0 1247736.964 11017512.426 -22945384.551 10 0 60930 8100.00000 0 -1586070.369 11080806.846 -22893267.415 10 0 60930 9000.00000 0 -4374236.495 11345176.461 -22395278.974 10 0 60930 9900.00000 0 -7048903.261 11796137.065 -21461104.577 10 0 60930 10800.00000 0 -9546597.291 12407746.588 -20108944.288 10 0 60930 11700.00000 0 -11810633.584 13143735.351 -18365156.229 10 0 60930 12600.00000 0 -13793236.529 13959091.362 -16263738.662 10 0 60930 13500.00000 0 -15457290.131 14802033.250 -13845661.056 10 0 60930 14400.00000 0 -16777644.899 15616286.739 -11158057.535 10 0 60930 15300.00000 0 -17741927.600 16343567.603 -8253299.008 10 0 60930 16200.00000 0 -18350821.309 16926165.205 -5187962.830 10 0 60930 17100.00000 0 -18617805.663 17309516.434 -2021720.966 10 0 60930 18000.00000 0 -18568370.169 17444660.440 1183830.616 10 0 60930 18900.00000 0 -18238735.782 17290469.772 4366377.533 10 0 60930 19800.00000 0 -17674140.706 16815563.318 7464103.185 10 0 60930 20700.00000 0 -16926764.577 15999820.208 10416891.206 10 0 60930 21600.00000 0 -16053380.147 14835430.988 13167490.432 10 0 60930 22500.00000 0 -15112832.607 13327442.147 15662619.813 10 0 60930 23400.00000 0 -14163453.326 11493771.442 17853992.244 10 0 60930 24300.00000 0 -13260516.964 9364693.712 19699238.318 10 0 60930 25200.00000 0 -12453848.403 6981818.739 21162713.304 10 0 60930 26100.00000 0 -11785679.145 4396603.683 22216173.071 10 0 60930 27000.00000 0 -11288841.967 1668461.437 22839307.371 10 0 60930 27900.00000 0 -10985378.223 -1137457.356 23020121.544 10 0 60930 28800.00000 0 -10885614.944 -3952717.898 22755160.402 10 0 60930 29700.00000 0 -10987749.383 -6708190.293 22049570.794 10 0 60930 30600.00000 0 -11277957.764 -9336668.618 20917002.003 10 0 60930 31500.00000 0 -11731023.492 -11775413.305 19379345.811 10 0 60930 32400.00000 0 -12311458.710 -13968513.281 17466320.731 10 0 60930 33300.00000 0 -12975072.815 -15868971.431 15214907.516 10 0 60930 34200.00000 0 -13670922.967 -17440428.042 12668645.692 10 0 60930 35100.00000 0 -14343565.665 -18658451.406 9876803.398 10 0 60930 36000.00000 0 -14935515.653 -19511342.344 6893435.276 10 0 60930 36900.00000 0 -15389809.351 -20000419.175 3776345.484 10 0 60930 37800.00000 0 -15652565.181 -20139771.095 585975.007 10 0 60930 38700.00000 0 -15675432.712 -19955489.986 -2615765.829 10 0 60930 39600.00000 0 -15417826.730 -19484412.493 -5766697.201 10 0 60930 40500.00000 0 -14848850.835 -18772424.914 -8805578.660 10 0 60930 41400.00000 0 -13948827.916 -17872401.973 -11673303.230 10 0 60930 42300.00000 0 -12710371.055 -16841866.273 -14314052.905 10 0 60930 43200.00000 0 -11138947.675 -15740467.205 -16676392.405 10 0 60930 44100.00000 0 -9252910.975 -14627385.949 -18714279.166 10 0 60930 45000.00000 0 -7082995.232 -13558776.526 -20387969.154 10 0 60930 45900.00000 0 -4671294.163 -12585351.411 -21664800.147 10 0 60930 46800.00000 0 -2069763.457 -11750214.157 -22519836.705 10 0 60930 47700.00000 0 661691.229 -11087031.086 -22936363.657 10 0 60930 48600.00000 0 3457461.914 -10618619.638 -22906218.124 10 0 60930 49500.00000 0 6248728.464 -10356013.324 -22429953.205 10 0 60930 50400.00000 0 8966087.693 -10298042.918 -21516829.844 10 0 60930 51300.00000 0 11542211.915 -10431451.578 -20184636.840 10 0 60930 52200.00000 0 13914426.065 -10731538.759 -18459342.332 10 0 60930 53100.00000 0 16027095.797 -11163305.302 -16374583.602 10 0 60930 54000.00000 0 17833726.928 -11683050.575 -13971005.277 10 0 60930 54900.00000 0 19298688.766 -12240353.272 -11295459.178 10 0 60930 55800.00000 0 20398489.774 -12780351.021 -8400081.995 10 0 60930 56700.00000 0 21122553.051 -13246221.237 -5341269.522 10 0 60930 57600.00000 0 21473460.434 -13581757.068 -2178568.330 10 0 60930 58500.00000 0 21466656.556 -13733928.416 1026492.464 10 0 60930 59400.00000 0 21129627.215 -13655318.787 4211605.596 10 0 60930 60300.00000 0 20500588.581 -13306334.305 7314901.885 10 0 60930 61200.00000 0 19626744.343 -12657091.220 10276153.898 10 0 60930 62100.00000 0 18562185.898 -11688902.141 13037943.314 10 0 60930 63000.00000 0 17365525.277 -10395298.495 15546769.319 10 0 60930 63900.00000 0 16097361.259 -8782546.419 17754076.928 10 0 60930 64800.00000 0 14817685.444 -6869634.640 19617186.134 10 0 60930 65700.00000 0 13583336.979 -4687734.933 21100105.033 10 0 60930 66600.00000 0 12445611.903 -2279157.558 22174212.525 10 0 60930 67500.00000 0 11448126.141 304155.255 22818798.878 10 0 60930 68400.00000 0 10625020.191 3002535.954 23021455.053 10 0 60930 69300.00000 0 9999579.132 5750820.380 22778304.442 10 0 60930 70200.00000 0 9583324.293 8480807.632 22094073.359 10 0 60930 71100.00000 0 9375613.407 11123850.820 20981999.341 10 0 60930 72000.00000 0 9363765.265 13613473.109 19463578.939 10 0 60930 72900.00000 0 9523703.252 15887902.401 17568159.396 10 0 60930 73800.00000 0 9821090.912 17892421.085 15332381.172 10 0 60930 74700.00000 0 10212912.345 19581434.554 12799480.975 10 0 60930 75600.00000 0 10649431.682 20920173.385 10018467.441 10 0 60930 76500.00000 0 11076450.040 21885958.810 7043184.090 10 0 60930 77400.00000 0 11437765.533 22468978.772 3931276.557 10 0 60930 78300.00000 0 11677733.125 22672541.940 743083.151 10 0 60930 79200.00000 0 11743816.350 22512798.591 -2459530.428 10 0 60930 80100.00000 0 11589022.808 22017939.509 -5614369.823 10 0 60930 81000.00000 0 11174119.746 21226905.956 -8660120.959 10 0 60930 81900.00000 0 10469534.803 20187664.428 -11537545.359 10 0 60930 82800.00000 0 9456860.014 18955118.448 -14190638.060 10 0 60930 83700.00000 0 8129893.574 17588745.160 -16567724.896 10 0 60930 84600.00000 0 6495173.304 16150056.269 -18622477.110 10 0 60930 85500.00000 0 4571977.109 14699990.524 -20314822.728 10 0 60931 0.00000 0 2391788.479 13296348.029 -21611736.190 10 0 60931 900.00000 0 -2753.723 11991374.110 -22487890.875 10 0 60931 1800.00000 0 -2559375.876 10829596.771 -22926159.597 10 0 60931 2700.00000 0 -5218102.163 9846006.643 -22917955.225 10 0 60931 3600.00000 0 -7913516.445 9064658.146 -22463402.585 10 0 60931 4500.00000 0 -10577260.635 8497750.083 -21571338.758 10 0 60931 5400.00000 0 -13140665.378 8145224.281 -20259141.430 10 0 60931 6300.00000 0 -15537403.309 7994898.803 -18552388.507 10 0 60931 7200.00000 0 -17706053.956 8023129.371 -16484355.625 10 0 60931 8100.00000 0 -19592473.066 8195970.184 -14095361.518 10 0 60931 9000.00000 0 -21151867.307 8470783.912 -11431974.317 10 0 60931 9900.00000 0 -22350487.696 8798231.530 -8546094.825 10 0 60931 10800.00000 0 -23166871.353 9124556.399 -5493935.366 10 0 60931 11700.00000 0 -23592580.381 9394064.550 -2334915.009 10 0 60931 12600.00000 0 -23632408.041 9551694.849 869506.288 10 0 60931 13500.00000 0 -23304045.141 9545569.110 4057030.876 10 0 60931 14400.00000 0 -22637222.366 9329413.374 7165739.664 10 0 60931 15300.00000 0 -21672366.437 8864747.343 10135296.988 10 0 60931 16200.00000 0 -20458828.310 8122749.202 12908120.325 10 0 60931 17100.00000 0 -19052759.319 7085717.085 15430492.111 10 0 60931 18000.00000 0 -17514725.543 5748065.792 17653592.484 10 0 60931 18900.00000 0 -15907161.020 4116817.010 19534433.712 10 0 60931 19800.00000 0 -14291766.536 2211562.596 21036679.387 10 0 60931 20700.00000 0 -12726962.362 63902.386 22131333.823 10 0 60931 21600.00000 0 -11265500.409 -2283620.369 22797289.827 10 0 60931 22500.00000 0 -9952334.165 -4779042.296 23021725.600 10 0 60931 23400.00000 0 -8822833.782 -7362899.605 22800344.296 10 0 60931 24300.00000 0 -7901419.167 -9970465.863 22137452.437 10 0 60931 25200.00000 0 -7200666.644 -12534216.589 21045876.097 10 0 60931 26100.00000 0 -6720925.257 -14986420.171 19546716.436 10 0 60931 27000.00000 0 -6450457.938 -17261749.370 17668948.813 10 0 60931 27900.00000 0 -6366101.122 -19299806.625 15448872.369 10 0 60931 28800.00000 0 -6434415.213 -21047459.533 12929419.568 10 0 60931 29700.00000 0 -6613277.808 -22460890.334 10159337.764 10 0 60931 30600.00000 0 -6853853.264 -23507274.576 7192257.275 10 0 60931 31500.00000 0 -7102856.178 -24166019.000 4085662.875 10 0 60931 32400.00000 0 -7305013.813 -24429506.658 899787.639 10 0 60931 33300.00000 0 -7405623.741 -24303317.520 -2303550.099 10 0 60931 34200.00000 0 -7353098.468 -23805914.539 -5462144.359 10 0 60931 35100.00000 0 -7101388.932 -22967807.535 -8514610.491 10 0 60931 36000.00000 0 -6612183.378 -21830229.220 -11401581.692 10 0 60931 36900.00000 0 -5856787.235 -20443378.353 -14066869.266 10 0 60931 37800.00000 0 -4817602.783 -18864303.441 -16458563.386 10 0 60931 38700.00000 0 -3489144.123 -17154515.717 -18530052.204 10 0 60931 39600.00000 0 -1878542.470 -15377431.755 -20240938.706 10 0 60931 40500.00000 0 -5518.316 -13595753.383 -21557836.770 10 0 60931 41400.00000 0 2098180.474 -11868895.243 -22455030.306 10 0 60931 42300.00000 0 4389852.891 -10250568.423 -22914982.109 10 0 60931 43200.00000 0 6817387.871 -8786621.914 -22928682.049 10 0 60931 44100.00000 0 9321212.855 -7513232.706 -22495827.450 10 0 60931 45000.00000 0 11836567.107 -6455520.547 -21624831.840 10 0 60931 45900.00000 0 14296005.198 -5626645.326 -20332661.664 10 0 60931 46800.00000 0 16632026.188 -5027424.443 -18644504.022 10 0 60931 47700.00000 0 18779718.453 -4646485.519 -16593271.883 10 0 60931 48600.00000 0 20679309.378 -4460946.842 -14218956.593 10 0 60931 49500.00000 0 22278513.005 -4437595.520 -11567840.611 10 0 60931 50400.00000 0 23534577.206 -4534512.064 -8691586.380 10 0 60931 51300.00000 0 24415944.742 -4703071.071 -5646219.834 10 0 60931 52200.00000 0 24903458.974 -4890231.727 -2491029.230 10 0 60931 53100.00000 0 24991064.390 -5041019.603 712598.205 10 0 60931 54000.00000 0 24685973.678 -5101093.250 3902378.154 10 0 60931 54900.00000 0 24008295.721 -5019285.837 7016345.324 10 0 60931 55800.00000 0 22990141.696 -4750013.411 9994059.393 10 0 60931 56700.00000 0 21674248.436 -4255447.509 12777776.956 10 0 60931 57600.00000 0 20112178.240 -3507360.148 15313566.692 10 0 60931 58500.00000 0 18362171.818 -2488563.462 17552346.463 10 0 60931 59400.00000 0 16486745.020 -1193883.570 19450823.011 10 0 60931 60300.00000 0 14550130.098 369372.087 20972317.201 10 0 60931 61200.00000 0 12615668.149 2181473.435 22087460.123 10 0 60931 62100.00000 0 10743260.680 4210850.258 22774748.062 10 0 60931 63000.00000 0 8986985.295 6415174.677 23020946.986 10 0 60931 63900.00000 0 7392973.282 8742899.373 22821339.916 10 0 60931 64800.00000 0 5997635.762 11135188.773 22179813.269 10 0 60931 65700.00000 0 4826310.548 13528164.424 21108780.940 10 0 60931 66600.00000 0 3892384.597 15855372.923 19628947.600 10 0 60931 67500.00000 0 3196927.368 18050375.617 17768915.292 10 0 60931 68400.00000 0 2728849.532 20049354.065 15564640.105 10 0 60931 69300.00000 0 2465579.910 21793624.282 13058748.276 10 0 60931 70200.00000 0 2374232.137 23231956.118 10299723.675 10 0 60931 71100.00000 0 2413212.239 24322601.700 7340981.045 10 0 60931 72000.00000 0 2534199.851 25034948.377 4239841.780 10 0 60931 72900.00000 0 2684419.920 25350726.812 1056431.096 10 0 60931 73800.00000 0 2809109.308 25264722.973 -2147482.709 10 0 60931 74700.00000 0 2854074.063 24784963.274 -5309684.706 10 0 60931 75600.00000 0 2768228.898 23932364.050 -8368722.262 10 0 60931 76500.00000 0 2506010.727 22739858.976 -11265102.710 10 0 60931 77400.00000 0 2029563.015 21251040.121 -13942455.917 10 0 60931 78300.00000 0 1310597.081 19518368.877 -16348638.490 10 0 60931 79200.00000 0 331849.886 17601031.339 -18436757.398 10 0 60931 80100.00000 0 -911925.242 15562527.842 -20166092.303 10 0 60931 81000.00000 0 -2413478.811 13468097.724 -21502897.958 10 0 60931 81900.00000 0 -4153118.583 11382087.410 -22421070.409 10 0 60931 82800.00000 0 -6099295.870 9365372.358 -22902663.464 10 0 60931 83700.00000 0 -8209701.766 7472941.144 -22938244.917 10 0 60931 84600.00000 0 -10432828.713 5751743.047 -22527085.224 10 0 60931 85500.00000 0 -12709932.908 4238889.341 -21677174.637 10 0 60932 0.00000 0 -14977315.807 2960283.569 -20405068.364 10 0 60932 900.00000 0 -17168830.660 1929737.067 -18735561.923 10 0 60932 1800.00000 0 -19218506.044 1148607.712 -16701204.753 10 0 60932 2700.00000 0 -21063180.338 605973.635 -14341659.487 10 0 60932 3600.00000 0 -22645033.362 279334.890 -11702921.275 10 0 60932 4500.00000 0 -23913909.939 135811.109 -8836412.316 10 0 60932 5400.00000 0 -24829337.492 133782.847 -5797970.069 10 0 60932 6300.00000 0 -25362153.072 224905.403 -2646749.739 10 0 60932 7200.00000 0 -25495671.802 356408.072 555936.573 10 0 60932 8100.00000 0 -25226348.372 473579.871 3747820.406 10 0 60932 9000.00000 0 -24563904.797 522335.097 6866892.923 10 0 60932 9900.00000 0 -23530920.276 451749.053 9852611.905 10 0 60932 10800.00000 0 -22161901.770 216455.999 12647075.891 10 0 60932 11700.00000 0 -20501875.552 -221192.376 15196142.629 10 0 60932 12600.00000 0 -18604559.907 -889299.058 17450470.443 10 0 60932 13500.00000 0 -16530196.244 -1805001.234 19366463.123 10 0 60932 14400.00000 0 -14343129.585 -2973516.721 20907101.120 10 0 60932 15300.00000 0 -12109239.273 -4387697.079 22042644.284 10 0 60932 16200.00000 0 -9893326.300 -6028106.099 22751193.986 10 0 60932 17100.00000 0 -7756564.833 -7863620.640 23019105.164 10 0 60932 18000.00000 0 -5754122.491 -9852529.301 22841241.507 10 0 60932 18900.00000 0 -3933046.525 -11944084.100 22221069.729 10 0 60932 19800.00000 0 -2330501.951 -14080441.838 21170591.588 10 0 60932 20700.00000 0 -972433.197 -16198915.863 19710114.941 10 0 60932 21600.00000 0 127296.563 -18234446.150 17867867.857 10 0 60932 22500.00000 0 967253.740 -20122186.546 15679462.374 10 0 60932 23400.00000 0 1558256.609 -21800102.802 13187217.192 10 0 60932 24300.00000 0 1922679.441 -23211474.230 10439351.087 10 0 60932 25200.00000 0 2093267.811 -24307195.294 7489061.337 10 0 60932 26100.00000 0 2111514.712 -25047781.181 4393503.833 10 0 60932 27000.00000 0 2025665.616 -25404993.202 1212693.605 10 0 60932 27900.00000 0 1888436.369 -25363015.292 -1991653.595 10 0 60932 28800.00000 0 1754540.176 -24919131.227 -5157316.541 10 0 60932 29700.00000 0 1678128.405 -24083872.913 -8222777.414 10 0 60932 30600.00000 0 1710253.910 -22880632.167 -11128420.584 10 0 60932 31500.00000 0 1896465.093 -21344750.974 -13817697.451 10 0 60932 32400.00000 0 2274633.643 -19522127.250 -16238234.029 10 0 60932 33300.00000 0 2873109.366 -17467393.632 -18342858.994 10 0 60932 34200.00000 0 3709281.782 -15241745.057 -20090531.404 10 0 60932 35100.00000 0 4788611.119 -12910505.725 -21447149.336 10 0 60932 36000.00000 0 6104171.476 -10540537.205 -22386223.057 10 0 60932 36900.00000 0 7636727.235 -8197596.183 -22889399.057 10 0 60932 37800.00000 0 9355341.188 -5943752.512 -22946824.289 10 0 60932 38700.00000 0 11218490.216 -3834975.631 -22557343.121 10 0 60932 39600.00000 0 13175642.774 -1918990.354 -21728522.865 10 0 60932 40500.00000 0 15169232.664 -233491.546 -20476507.155 10 0 60932 41400.00000 0 17136946.689 1195208.011 -18825699.883 10 0 60932 42300.00000 0 19014230.195 2353040.647 -16808285.854 10 0 60932 43200.00000 0 20736905.173 3238522.590 -14463597.641 10 0 60932 44100.00000 0 22243790.586 3862555.723 -11837341.289 10 0 60932 45000.00000 0 23479214.415 4247702.343 -8980696.517 10 0 60932 45900.00000 0 24395311.467 4426965.425 -5949309.662 10 0 60932 46800.00000 0 24954010.108 4442127.898 -2802199.872 10 0 60932 47700.00000 0 25128624.371 4341723.144 399399.124 10 0 60932 48600.00000 0 24904984.810 4178724.446 3593238.114 10 0 60932 49500.00000 0 24282061.145 4008052.815 6717268.127 10 0 60932 50400.00000 0 23272051.399 3884009.980 9710848.363 10 0 60932 51300.00000 0 21899934.831 3857746.053 12515922.432 10 0 60932 52200.00000 0 20202508.493 3974869.422 15078140.016 10 0 60932 53100.00000 0 18226948.781 4273299.940 17347902.476 10 0 60932 54000.00000 0 16028958.901 4781455.736 19281312.886 10 0 60932 54900.00000 0 13670580.010 5516849.630 20841013.198 10 0 60932 55800.00000 0 11217757.265 6485153.713 21996893.577 10 0 60932 56700.00000 0 8737761.570 7679771.010 22726661.678 10 0 60932 57600.00000 0 6296573.204 9081932.077 23016262.219 10 0 60932 58500.00000 0 3956334.642 10661312.700 22860139.963 10 0 60932 59400.00000 0 1772976.580 12377147.525 22261341.906 10 0 60932 60300.00000 0 -205886.137 14179794.110 21231457.196 10 0 60932 61200.00000 0 -1942703.145 16012683.458 19790395.990 10 0 60932 62100.00000 0 -3411310.804 17814577.200 17966011.082 10 0 60932 63000.00000 0 -4597774.479 19522038.852 15793568.817 10 0 60932 63900.00000 0 -5500716.834 21072017.490 13315078.404 10 0 60932 64800.00000 0 -6131119.186 22404437.152 10578491.343 10 0 60932 65700.00000 0 -6511604.603 23464684.596 7636785.078 10 0 60932 66600.00000 0 -6675232.906 24205891.678 4546947.475 10 0 60932 67500.00000 0 -6663858.092 24590916.596 1368880.760 10 0 60932 68400.00000 0 -6526117.221 24593940.363 -1835754.554 10 0 60932 69300.00000 0 -6315135.410 24201610.423 -5004733.663 10 0 60932 70200.00000 0 -6086043.954 23413682.095 -8076476.243 10 0 60932 71100.00000 0 -5893416.733 22243129.308 -10991246.306 10 0 60932 72000.00000 0 -5788733.953 20715718.423 -13692319.251 10 0 60932 72900.00000 0 -5817981.406 18869061.491 -16127092.781 10 0 60932 73800.00000 0 -6019487.980 16751187.301 -18248119.363 10 0 60932 74700.00000 0 -6422094.280 14418689.089 -20014039.313 10 0 60932 75600.00000 0 -7043731.327 11934525.655 -21390395.669 10 0 60932 76500.00000 0 -7890471.003 9365567.438 -22350314.319 10 0 60932 77400.00000 0 -8956089.927 6779989.902 -22875035.588 10 0 60932 78300.00000 0 -10222166.670 4244623.101 -22954286.429 10 0 60932 79200.00000 0 -11658709.546 1822368.122 -22586485.633 10 0 60932 80100.00000 0 -13225289.610 -430211.629 -21778777.698 10 0 60932 81000.00000 0 -14872631.954 -2465023.822 -20546894.515 10 0 60932 81900.00000 0 -16544598.804 -4244216.416 -18914847.396 10 0 60932 82800.00000 0 -18180481.113 -5741509.250 -16914455.463 10 0 60932 83700.00000 0 -19717502.057 -6943033.170 -14584719.714 10 0 60932 84600.00000 0 -21093426.742 -7847642.790 -11971055.270 10 0 60932 85500.00000 0 -22249167.716 -8466691.318 -9124397.304 99